COSMOS 2475 (743)

Last updated on Mon Jun 22 2026 00:03:26 GMT+0000 (Coordinated Universal Time)

1 37869U 11064C 26172.27141125 -.00000050 00000+0 00000+0 0 9990 2 37869 65.2855 72.8344 0025398 253.0476 300.3064 2.13101681113855
UTC large
Height (km)
Speed (km/s)
/
Latitude / Longitude
Inclination (degrees)
Orbital Period (minutes)
Azimuth
Elevation
Range (km)
Doppler Factor

Next 0 passes for location: London (51.5072 / 0.1276)

No passes found over London.
COSMOS 2475 (743)